This is the latest recevied weather packets stored in our database for station/object IA5ITY-13. If no packets are shown the sender has not sent any weather packets the latest 1 day(s).
| Time | Temp. | Humidity | Pressure | Rain* | Wind** | Luminosity | Snow |
|---|---|---|---|---|---|---|---|
| 1778075709 | 22.22° C | 89% | 1009.7 hPa | 0 mm | - | - | - |
| 1778075113 | 21.11° C | 90% | 1009.7 hPa | 0 mm | - | - | - |
| 1778073910 | 22.78° C | 92% | 1009.8 hPa | 0 mm | - | - | - |
| 1778072710 | 22.22° C | 90% | 1009.9 hPa | 0 mm | - | - | - |
| 1778072435 | 22.22° C | 94% | 1010 hPa | 0 mm | - | - | - |
| 1778072109 | 22.22° C | 99% | 1010.1 hPa | 0 mm | - | - | - |
| 1778070910 | 21.11° C | 97% | 1010.1 hPa | 0 mm | - | - | - |
| 1778070625 | 21.11° C | 99% | 1010 hPa | 0 mm | - | - | - |
| 1778069713 | 21.11° C | 99% | 1010.1 hPa | 0 mm | - | - | - |
| 1778069110 | 18.89° C | 99% | 1010 hPa | 0 mm | - | - | - |
| 1778068834 | 18.89° C | 99% | 1010 hPa | 0 mm | - | - | - |
| 1778067913 | 20° C | 99% | 1010.2 hPa | 0 mm | - | - | - |
| 1778067310 | 18.89° C | 99% | 1010.1 hPa | 0 mm | - | - | - |
| 1778067024 | 18.89° C | 99% | 1010.2 hPa | 0 mm | - | - | - |
| 1778066413 | 18.89° C | 99% | 1009.9 hPa | 0 mm | - | - | - |
| 1778065814 | 20° C | 99% | 1009.9 hPa | 0 mm | - | - | - |
| 1778064910 | 20° C | 99% | 1010 hPa | 0 mm | - | - | - |
| 1778063709 | 20° C | 99% | 1010.2 hPa | 0 mm | - | - | - |
| 1778062813 | 18.89° C | 99% | 1010.3 hPa | 0 mm | - | - | - |
| 1778062513 | 20° C | 99% | 1010.2 hPa | 0 mm | - | - | - |
| 1778062213 | 18.89° C | 99% | 1010.2 hPa | 0 mm | - | - | - |
| 1778061636 | 17.78° C | 99% | 1010.1 hPa | 0 mm | - | - | - |
| 1778060414 | 17.78° C | 99% | 1010.1 hPa | 0 mm | - | - | - |
| 1778059823 | 18.89° C | 99% | 1010.2 hPa | 0 mm | - | - | - |
| 1778059213 | 18.89° C | 99% | 1009.9 hPa | 0 mm | - | - | - |
* Rain latest hour (hover to see other rain measurements)
** Current wind speed in m/s (hover to see current wind gust speed)